Stündliche Wetter Abadia

Heute, 17 Juni, Donnerstag

Zeit Temperatur Niederschläge Wind Luftdruck Luftfeuchtigkeit
00:00 +19°C° 0 mm 1 m/S 718 mmHg 60%
01:00 +19°C° 0 mm 1 m/S 717 mmHg 63%
02:00 +18°C° 0 mm 1 m/S 717 mmHg 67%
03:00 +16°C° 0 mm 1 m/S 717 mmHg 70%
04:00 +18°C° 0 mm 1 m/S 717 mmHg 72%
05:00 +18°C° 0 mm 1 m/S 717 mmHg 74%
06:00 +18°C° 0 mm 1 m/S 718 mmHg 76%
07:00 +18°C° 0.1 mm 2 m/S 718 mmHg 74%
08:00 +19°C° 0.1 mm 2 m/S 718 mmHg 73%
09:00 +20°C° 0.1 mm 2 m/S 718 mmHg 71%
10:00 +21°C° 0.1 mm 3 m/S 718 mmHg 63%
11:00 +24°C° 0.1 mm 3 m/S 718 mmHg 54%
12:00 +25°C° 0.1 mm 4 m/S 718 mmHg 46%
13:00 +25°C° 0 mm 4 m/S 718 mmHg 47%
14:00 +23°C° 0 mm 4 m/S 718 mmHg 48%
15:00 +23°C° 0 mm 4 m/S 717 mmHg 49%
16:00 +24°C° 0 mm 3 m/S 717 mmHg 48%
17:00 +24°C° 0 mm 3 m/S 717 mmHg 46%
18:00 +24°C° 0 mm 3 m/S 717 mmHg 44%
19:00 +23°C° 0 mm 2 m/S 717 mmHg 51%
20:00 +20°C° 0 mm 2 m/S 718 mmHg 59%
21:00 +19°C° 0 mm 1 m/S 718 mmHg 66%
22:00 +19°C° 1.4 mm 1 m/S 718 mmHg 75%
23:00 +18°C° 1.4 mm 1 m/S 718 mmHg 84%

Morgen, 18 Juni, Freitag

Zeit Temperatur Niederschläge Wind Luftdruck Luftfeuchtigkeit
00:00 +16°C° 1.4 mm 1 m/S 718 mmHg 93%
01:00 +16°C° 1 mm 1 m/S 718 mmHg 93%
02:00 +16°C° 1 mm 1 m/S 718 mmHg 92%
03:00 +16°C° 1 mm 1 m/S 718 mmHg 92%
04:00 +16°C° 0.5 mm 1 m/S 718 mmHg 92%
05:00 +16°C° 0.5 mm 1 m/S 718 mmHg 92%
06:00 +16°C° 0.5 mm 1 m/S 718 mmHg 92%
07:00 +18°C° 0.4 mm 1 m/S 719 mmHg 89%
08:00 +19°C° 0.4 mm 1 m/S 719 mmHg 87%
09:00 +18°C° 0.4 mm 2 m/S 719 mmHg 84%
10:00 +19°C° 0.7 mm 2 m/S 719 mmHg 79%
11:00 +20°C° 0.7 mm 3 m/S 719 mmHg 74%
12:00 +21°C° 0.7 mm 3 m/S 719 mmHg 70%
13:00 +21°C° 0.7 mm 3 m/S 719 mmHg 69%
14:00 +21°C° 0.7 mm 3 m/S 719 mmHg 67%
15:00 +21°C° 0.7 mm 3 m/S 719 mmHg 66%
16:00 +21°C° 0.4 mm 2 m/S 719 mmHg 67%
17:00 +21°C° 0.4 mm 2 m/S 719 mmHg 69%
18:00 +20°C° 0.4 mm 2 m/S 719 mmHg 70%
19:00 +19°C° 0.1 mm 2 m/S 719 mmHg 73%
20:00 +19°C° 0.1 mm 1 m/S 719 mmHg 77%
21:00 +16°C° 0.1 mm 1 m/S 719 mmHg 81%
22:00 +16°C° 0.1 mm 1 m/S 720 mmHg 82%
23:00 +16°C° 0.1 mm 1 m/S 720 mmHg 82%

übermorgen, 19 Juni, Samstag

Zeit Temperatur Niederschläge Wind Luftdruck Luftfeuchtigkeit
00:00 +15°C° 0.1 mm 1 m/S 720 mmHg 83%
01:00 +15°C° 0.5 mm 1 m/S 719 mmHg 84%
02:00 +14°C° 0.5 mm 1 m/S 719 mmHg 86%
03:00 +14°C° 0.5 mm 1 m/S 719 mmHg 87%
04:00 +14°C° 0.2 mm 1 m/S 719 mmHg 87%
05:00 +15°C° 0.2 mm 1 m/S 719 mmHg 86%
06:00 +15°C° 0.2 mm 1 m/S 719 mmHg 86%
07:00 +16°C° 0.2 mm 1 m/S 719 mmHg 80%
08:00 +19°C° 0.2 mm 1 m/S 720 mmHg 74%
09:00 +19°C° 0.2 mm 2 m/S 720 mmHg 68%
10:00 +20°C° 0.5 mm 2 m/S 720 mmHg 64%
11:00 +21°C° 0.5 mm 3 m/S 720 mmHg 60%
12:00 +21°C° 0.5 mm 3 m/S 720 mmHg 56%
13:00 +21°C° 0.5 mm 3 m/S 720 mmHg 57%
14:00 +21°C° 0.5 mm 3 m/S 720 mmHg 57%
15:00 +21°C° 0.5 mm 3 m/S 719 mmHg 57%
16:00 +20°C° 0.4 mm 3 m/S 719 mmHg 61%
17:00 +20°C° 0.4 mm 3 m/S 719 mmHg 65%
18:00 +19°C° 0.4 mm 2 m/S 719 mmHg 69%
19:00 +17°C° 0 mm 2 m/S 719 mmHg 75%
20:00 +16°C° 0 mm 2 m/S 719 mmHg 81%
21:00 +15°C° 0 mm 2 m/S 720 mmHg 86%
22:00 +14°C° 0 mm 2 m/S 720 mmHg 89%
23:00 +14°C° 0 mm 2 m/S 720 mmHg 91%

20 Juni, Sonntag

Zeit Temperatur Niederschläge Wind Luftdruck Luftfeuchtigkeit
00:00 +14°C° 0 mm 1 m/S 720 mmHg 93%
01:00 +14°C° 0 mm 2 m/S 720 mmHg 93%
02:00 +14°C° 0 mm 2 m/S 720 mmHg 93%
03:00 +14°C° 0 mm 2 m/S 719 mmHg 93%
04:00 +14°C° 0 mm 2 m/S 720 mmHg 93%
05:00 +13°C° 0 mm 2 m/S 720 mmHg 92%
06:00 +13°C° 0 mm 2 m/S 720 mmHg 91%
07:00 +14°C° 0 mm 2 m/S 720 mmHg 89%
08:00 +14°C° 0 mm 2 m/S 720 mmHg 86%
09:00 +14°C° 0 mm 2 m/S 720 mmHg 84%
10:00 +14°C° 0.1 mm 2 m/S 720 mmHg 85%
11:00 +15°C° 0.1 mm 2 m/S 721 mmHg 86%
12:00 +15°C° 0.1 mm 2 m/S 721 mmHg 87%
13:00 +15°C° 0 mm 2 m/S 720 mmHg 86%
14:00 +16°C° 0 mm 1 m/S 720 mmHg 85%
15:00 +16°C° 0 mm 1 m/S 720 mmHg 85%
16:00 +17°C° 0 mm 2 m/S 720 mmHg 82%
17:00 +17°C° 0 mm 2 m/S 720 mmHg 80%
18:00 +18°C° 0 mm 2 m/S 719 mmHg 78%
19:00 +17°C° 0 mm 2 m/S 719 mmHg 82%
20:00 +15°C° 0 mm 1 m/S 720 mmHg 87%
21:00 +14°C° 0 mm 1 m/S 720 mmHg 92%
22:00 +14°C° 0 mm 1 m/S 719 mmHg 92%
23:00 +13°C° 0 mm 1 m/S 719 mmHg 92%

21 Juni, Montag

Zeit Temperatur Niederschläge Wind Luftdruck Luftfeuchtigkeit
00:00 +13°C° 0 mm 1 m/S 719 mmHg 92%
01:00 +13°C° 0 mm 1 m/S 719 mmHg 91%
02:00 +12°C° 0 mm 1 m/S 719 mmHg 91%
03:00 +12°C° 0 mm 1 m/S 719 mmHg 90%
04:00 +12°C° 0 mm 1 m/S 719 mmHg 89%
05:00 +12°C° 0 mm 1 m/S 720 mmHg 87%
06:00 +12°C° 0 mm 1 m/S 720 mmHg 86%
07:00 +14°C° 0 mm 2 m/S 720 mmHg 75%
08:00 +16°C° 0 mm 2 m/S 720 mmHg 63%
09:00 +19°C° 0 mm 2 m/S 721 mmHg 51%
10:00 +20°C° 0 mm 2 m/S 721 mmHg 45%
11:00 +23°C° 0 mm 2 m/S 721 mmHg 39%
12:00 +24°C° 0 mm 3 m/S 721 mmHg 33%
13:00 +25°C° 0 mm 3 m/S 721 mmHg 33%
14:00 +25°C° 0 mm 4 m/S 720 mmHg 34%
15:00 +26°C° 0 mm 4 m/S 720 mmHg 34%
16:00 +25°C° 0 mm 4 m/S 720 mmHg 38%
17:00 +23°C° 0 mm 4 m/S 721 mmHg 42%
18:00 +22°C° 0 mm 4 m/S 721 mmHg 46%
19:00 +20°C° 0 mm 4 m/S 721 mmHg 55%
20:00 +18°C° 0 mm 3 m/S 722 mmHg 63%
21:00 +14°C° 0 mm 3 m/S 722 mmHg 72%
22:00 +14°C° 0 mm 3 m/S 722 mmHg 76%
23:00 +13°C° 0 mm 3 m/S 722 mmHg 80%

22 Juni, Dienstag

Zeit Temperatur Niederschläge Wind Luftdruck Luftfeuchtigkeit
00:00 +12°C° 0 mm 3 m/S 722 mmHg 84%
01:00 +12°C° 0 mm 3 m/S 722 mmHg 84%
02:00 +12°C° 0 mm 3 m/S 722 mmHg 85%
03:00 +11°C° 0 mm 3 m/S 722 mmHg 86%
04:00 +12°C° 0 mm 3 m/S 722 mmHg 83%
05:00 +12°C° 0 mm 3 m/S 723 mmHg 81%
06:00 +12°C° 0 mm 3 m/S 723 mmHg 78%
07:00 +16°C° 0 mm 3 m/S 723 mmHg 68%
08:00 +19°C° 0 mm 3 m/S 724 mmHg 57%
09:00 +21°C° 0 mm 3 m/S 724 mmHg 46%
10:00 +24°C° 0 mm 3 m/S 724 mmHg 41%
11:00 +26°C° 0 mm 2 m/S 724 mmHg 36%
12:00 +27°C° 0 mm 2 m/S 724 mmHg 31%
13:00 +28°C° 0 mm 2 m/S 724 mmHg 29%
14:00 +29°C° 0 mm 2 m/S 724 mmHg 27%
15:00 +30°C° 0 mm 2 m/S 724 mmHg 25%
16:00 +29°C° 0 mm 2 m/S 723 mmHg 26%
17:00 +29°C° 0 mm 2 m/S 723 mmHg 27%
18:00 +29°C° 0 mm 2 m/S 723 mmHg 28%
19:00 +26°C° 0 mm 2 m/S 724 mmHg 34%
20:00 +23°C° 0 mm 2 m/S 724 mmHg 40%
21:00 +20°C° 0 mm 3 m/S 724 mmHg 46%
22:00 +19°C° 0 mm 2 m/S 724 mmHg 48%
23:00 +19°C° 0 mm 2 m/S 724 mmHg 50%
Mehr zeigen

Wir brauchen deine Erlaubnis

Meteoprog und unser Service Anbieter werden persönliche Daten aufbewahren, so wie Cookies, Geräte Bezeichnung oder ähnliche Technologien von deinem Gerät und Prozess, so wie Persönliche Daten Inhalte und Werbungen, genauso wie social Media und den Verkehr zu analysieren.

  • Aufbewahrung und/oder Zugang zu deiner Geräte Informationen.

    Cookies, Geräte Bezeichnung oder andere Informationen, können aufbewahrt oder Zugang zu deinem Gerät erhalten, für den Grund, der oben angegeben wird.

  • Personalisierte Werbung und Inhalte, Messungen, Einblick in das Publikum und Produkt Entwicklung.

    Werbungen und Inhalte können personalisiert werden, basierend auf ein Profil. Mehr Daten können besser personalisierte Werbungen und Inhalte hinzufügen. Werbung und Inhalte können gezeigt und gemessen werden. Einblicke über das Publikum, welche die Werbung gesehen haben und den Inhalt, können abgeleitet werden. So wie Daten können genutzt werden, um es zu verbessern oder die Benutzer Erfahrung zu verbessern das System und die Software.

Wenn du “Ich stimme zu” klickst, erlaubst du uns, die Cookies zu benutzen die Geräte Bezeichnung, den Web oder ähnliche Technologien zu benutzen. Deine Settings, können in deinem Gerät bei deinem Browser geändert werden.

Für den bestimmten Zweck, berechtigten Interessen beruhen darauf, mehr als auf den Inhalt. Du kannst mehr darüber in unseren Privaten und Cookie Politik lesen.